User: anonymous   Login
Location: Helsinki
(60.1699°N, 24.9384°E)
Time: 01:47:18
(UTC+02:00)
Language:

A-11 Canister half - Orbit

View from above orbital plane
View from above orbital plane
View from above satellite
View from above satellite

Ground track
Ground track

The orbit data is extracted from the following two-line orbital elements,

1    51U 60009C   20300.47151865 -.00000104 +00000-0 -19439-3 0  9999
2    51 047.2135 302.0809 0106431 193.9758 165.8076 12.18273433680066
Epoch (UTC): 26 October 2020 11:18:59
Eccentricity: 0.0106431
inclination: 47.2135°
perigee height: 1515 km
apogee height: 1685 km
right ascension of ascending node: 302.0809°
argument of perigee: 193.9758°
revolutions per day: 12.18273433
mean anomaly at epoch: 165.8076°
orbit number at epoch: 68006

The dashed part of the orbit path shows where the satellite is in the earth's shadow,  

DLR